Flag for U.S.A. Weather past 2 weeks in Breckenridge, Colorado, U.S.A.

Now
45 °F

Overcast.


Feels Like: 37 °F
Forecast: 49 / 66 °F
Wind: 17 mph from West

Location: Copper Mountain - Red Cliff Pass

Current Time: Sep 23, 2014 at 12:27:07 AM

Latest Report: Sep 22, 2014 at 11:55 PM


Visibility: 10 mi

Pressure: 30.56 "Hg

Humidity: 66%

Dew point: 34 °F

Location of BreckenridgeLocation

Historic Weather in Breckenridge — Graph

°F

Breckenridge temperature yesterday

Maximum temperature yesterday: 54 °F (at 11:55 AM)
Minimum temperature yesterday: 43 °F (at 10:15 PM)
Average temperature yesterday: 46 °F

Past Weeks' High & Low Weather Summary

 TemperatureHumidityPressure
High68 °F (Sep 18, 1:36 PM)93% (Sep 10, 6:35 AM)30.73 "Hg (Sep 10, 6:35 AM)
Low34 °F (Sep 12, 6:36 AM)10% (Sep 18, 3:56 PM)30.31 "Hg (Sep 9, 2:56 PM)
Average49 °F51%30.55 "Hg
* Reported Sep 7 11:16 PM — Sep 22 11:15 PM, Breckenridge, Weather by CustomWeather, © 2014

Note: Actual official high and low records may vary slightly from our data, if they occured in-between our weather recording intervals... More about our weather records

Advertising

Breckenridge weather history for previous 24 hours

 ConditionsComfort  
Time TempWeatherWind HumidityBarometerVisibility
11:15 PM
Sep 22
45 °FPartly cloudy.12 mph66%30.56 "Hg10 mi
10:55 PM45 °FPassing clouds.9 mph71%30.57 "Hg10 mi
10:35 PM45 °FPassing clouds.21 mph71%30.57 "Hg10 mi
10:15 PM43 °FPassing clouds.10 mph76%30.57 "Hg10 mi
9:55 PM45 °FPassing clouds.13 mph71%30.57 "Hg10 mi
9:35 PM45 °FPassing clouds.8 mph71%30.57 "Hg10 mi
9:15 PM45 °FThundershowers. Passing clouds.12 mph71%30.57 "Hg10 mi
8:55 PM45 °FLight rain. Partly cloudy.12 mph71%30.58 "Hg10 mi
8:35 PM45 °FDrizzle. Overcast.15 mph71%30.56 "Hg10 mi
8:15 PM45 °FLight rain. Overcast.18 mph71%30.57 "Hg7 mi
7:55 PM45 °FRain. Cloudy.23 mph71%30.56 "Hg7 mi
7:35 PM45 °FCloudy.20 mph71%30.56 "Hg10 mi
7:15 PM45 °FLight rain. Cloudy.17 mph71%30.55 "Hg7 mi
6:55 PM45 °FScattered clouds.13 mph66%30.55 "Hg10 mi
6:35 PM46 °FSunny.20 mph62%30.55 "Hg10 mi
5:55 PM46 °FBroken clouds.18 mph71%30.55 "Hg10 mi
5:35 PM46 °FScattered clouds.13 mph71%30.54 "Hg10 mi
5:15 PM52 °FScattered clouds.16 mph54%30.55 "Hg10 mi
4:55 PM52 °FScattered clouds.22 mph58%30.56 "Hg10 mi
4:35 PM46 °FBroken clouds.13 mph82%30.56 "Hg10 mi
4:15 PM45 °FLight rain. Low clouds.24 mph76%30.56 "Hg4 mi
3:55 PM45 °FDrizzle. Low clouds.22 mph76%30.56 "Hg2 mi
3:35 PM45 °FLow clouds.22 mph76%30.56 "Hg10 mi
3:15 PM46 °FMostly cloudy.16 mph71%30.55 "Hg10 mi
2:55 PM46 °FThundershowers. Low clouds.18 mph76%30.56 "Hg10 mi
2:35 PM46 °FMostly cloudy.21 mph71%30.56 "Hg10 mi
2:15 PM46 °FMostly cloudy.17 mph71%30.57 "Hg10 mi
1:55 PM45 °FLow clouds.20 mph76%30.57 "Hg10 mi
1:35 PM45 °FMostly cloudy.22 mph76%30.57 "Hg10 mi
1:15 PM52 °FBroken clouds.26 mph58%30.57 "Hg10 mi
12:55 PM54 °FThunderstorms. Broken clouds.15 mph51%30.59 "Hg10 mi
12:35 PM54 °FBroken clouds.22 mph51%30.59 "Hg10 mi
11:55 AM54 °FThundershowers. Broken clouds.15 mph54%30.60 "Hg10 mi
11:35 AM50 °FScattered clouds.10 mph54%30.60 "Hg10 mi
11:15 AM48 °FScattered clouds.10 mph62%30.60 "Hg10 mi
10:55 AM48 °FBroken clouds.9 mph66%30.61 "Hg10 mi
10:35 AM46 °FBroken clouds.15 mph71%30.62 "Hg10 mi
10:15 AM46 °FThundershowers. Broken clouds.9 mph71%30.62 "Hg10 mi
9:55 AM45 °FDrizzle. Cloudy.8 mph76%30.62 "Hg7 mi
9:35 AM45 °FCloudy.15 mph81%30.62 "Hg10 mi
9:15 AM45 °FCloudy.10 mph81%30.61 "Hg5 mi
8:55 AM45 °FThundershowers. Cloudy.13 mph76%30.61 "Hg7 mi
8:35 AM45 °FDrizzle. Cloudy.15 mph76%30.60 "Hg7 mi
8:15 AM45 °FLight rain. Cloudy.15 mph76%30.60 "Hg5 mi
7:56 AM45 °FMore clouds than sun.21 mph76%30.60 "Hg10 mi
7:35 AM45 °FLight rain. Mostly cloudy.15 mph76%30.60 "Hg10 mi
7:15 AM45 °FMostly cloudy.13 mph76%30.60 "Hg10 mi
6:55 AM45 °FMostly cloudy.16 mph76%30.60 "Hg10 mi
6:35 AM45 °FDrizzle. Overcast.15 mph76%30.60 "Hg10 mi
6:15 AM45 °FRain. Overcast.10 mph76%30.60 "Hg10 mi
5:55 AM45 °FDrizzle. Overcast.20 mph76%30.61 "Hg7 mi
5:35 AM45 °FRain. Overcast.22 mph76%30.61 "Hg7 mi
4:55 AM45 °FLight rain. Overcast.24 mph87%30.61 "Hg5 mi
4:35 AM45 °FRain. Low clouds.12 mph87%30.60 "Hg0 mi
4:15 AM45 °FPassing clouds.15 mph87%30.61 "Hg5 mi
3:55 AM45 °FPartly cloudy.8 mph81%30.61 "Hg10 mi
3:35 AM46 °FOvercast.13 mph76%30.60 "Hg10 mi
3:15 AM46 °FMostly cloudy.15 mph71%30.62 "Hg10 mi
2:55 AM46 °FPassing clouds.12 mph71%30.61 "Hg10 mi
2:35 AM46 °FPassing clouds.17 mph71%30.62 "Hg10 mi
2:15 AM46 °FPassing clouds.16 mph76%30.62 "Hg10 mi
1:55 AM46 °FPartly cloudy.18 mph76%30.63 "Hg10 mi
1:35 AM46 °FMostly cloudy.16 mph76%30.64 "Hg10 mi
1:15 AM46 °FPartly cloudy.14 mph71%30.64 "Hg10 mi
12:55 AM46 °FPassing clouds.10 mph76%30.63 "Hg10 mi
12:35 AM45 °FPartly cloudy.8 mph81%30.64 "Hg10 mi
Weather by CustomWeather, © 2014

See weather overviewHow to use our weather pages